When you browse on this site, cookies collect data to enhance your experience and personalize the content and advertising you see.
Visit our Privacy Policy to learn more. By continuing to use the site, you agree to this use of cookies and data.
  • In Romania
  • List of Countries
  • For 7 days
  • Water Temperature
  • Satellite Maps
  • Weather Map
  • Weather Widgets
  • user-avatar
    Login

    Hourly Weather Kipungo

    Today, 16 June, Sunday

    Time Temperature Precipitation Wind Pressure Humidity
    00:00 +13°C° 0 mm 1 mps 654 mmHg 46%
    01:00 +13°C° 0 mm 1 mps 654 mmHg 47%
    02:00 +12°C° 0 mm 1 mps 654 mmHg 49%
    03:00 +10°C° 0 mm 0 mps 653 mmHg 52%
    04:00 +10°C° 0 mm 0 mps 653 mmHg 55%
    05:00 +10°C° 0 mm 0 mps 653 mmHg 54%
    06:00 +10°C° 0 mm 0 mps 654 mmHg 54%
    07:00 +12°C° 0 mm 1 mps 655 mmHg 53%
    08:00 +16°C° 0 mm 1 mps 656 mmHg 46%
    09:00 +19°C° 0 mm 2 mps 656 mmHg 38%
    10:00 +24°C° 0 mm 3 mps 657 mmHg 30%
    11:00 +26°C° 0 mm 3 mps 657 mmHg 27%
    12:00 +28°C° 0 mm 2 mps 657 mmHg 23%
    13:00 +29°C° 0 mm 2 mps 656 mmHg 20%
    14:00 +29°C° 0 mm 2 mps 656 mmHg 19%
    15:00 +29°C° 0 mm 2 mps 656 mmHg 19%
    16:00 +29°C° 0 mm 1 mps 655 mmHg 19%
    17:00 +26°C° 0 mm 1 mps 655 mmHg 24%
    18:00 +22°C° 0 mm 1 mps 655 mmHg 29%
    19:00 +19°C° 0 mm 1 mps 655 mmHg 34%
    20:00 +18°C° 0 mm 1 mps 655 mmHg 37%
    21:00 +16°C° 0 mm 1 mps 655 mmHg 40%
    22:00 +15°C° 0 mm 2 mps 655 mmHg 42%
    23:00 +14°C° 0 mm 2 mps 655 mmHg 47%

    Tomorrow, 17 June, Monday

    Time Temperature Precipitation Wind Pressure Humidity
    00:00 +13°C° 0 mm 1 mps 655 mmHg 52%
    01:00 +13°C° 0 mm 1 mps 655 mmHg 56%
    02:00 +12°C° 0 mm 1 mps 655 mmHg 60%
    03:00 +10°C° 0 mm 0 mps 654 mmHg 64%
    04:00 +10°C° 0 mm 0 mps 654 mmHg 67%
    05:00 +10°C° 0 mm 0 mps 654 mmHg 67%
    06:00 +10°C° 0 mm 0 mps 655 mmHg 67%
    07:00 +10°C° 0 mm 0 mps 655 mmHg 67%
    08:00 +15°C° 0 mm 1 mps 656 mmHg 54%
    09:00 +20°C° 0 mm 1 mps 657 mmHg 41%
    10:00 +24°C° 0 mm 2 mps 658 mmHg 28%
    11:00 +26°C° 0 mm 2 mps 658 mmHg 25%
    12:00 +28°C° 0 mm 2 mps 658 mmHg 22%
    13:00 +30°C° 0 mm 2 mps 657 mmHg 19%
    14:00 +30°C° 0 mm 2 mps 657 mmHg 19%
    15:00 +30°C° 0 mm 2 mps 656 mmHg 18%
    16:00 +30°C° 0 mm 2 mps 656 mmHg 18%
    17:00 +26°C° 0 mm 1 mps 656 mmHg 23%
    18:00 +23°C° 0 mm 1 mps 655 mmHg 28%
    19:00 +20°C° 0 mm 1 mps 655 mmHg 34%
    20:00 +19°C° 0 mm 1 mps 655 mmHg 37%
    21:00 +18°C° 0 mm 1 mps 655 mmHg 40%
    22:00 +16°C° 0 mm 1 mps 655 mmHg 43%
    23:00 +13°C° 0 mm 0 mps 655 mmHg 47%

    Day after tomorrow, 18 June, Tuesday

    Time Temperature Precipitation Wind Pressure Humidity
    00:00 +12°C° 0 mm 0 mps 654 mmHg 50%
    01:00 +11°C° 0 mm 0 mps 654 mmHg 54%
    02:00 +11°C° 0 mm 0 mps 654 mmHg 56%
    03:00 +10°C° 0 mm 0 mps 654 mmHg 58%
    04:00 +10°C° 0 mm 0 mps 653 mmHg 60%
    05:00 +10°C° 0 mm 0 mps 654 mmHg 60%
    06:00 +10°C° 0 mm 0 mps 654 mmHg 59%
    07:00 +10°C° 0 mm 0 mps 655 mmHg 59%
    08:00 +15°C° 0 mm 1 mps 656 mmHg 49%
    09:00 +19°C° 0 mm 2 mps 657 mmHg 39%
    10:00 +24°C° 0 mm 3 mps 658 mmHg 29%
    11:00 +26°C° 0 mm 3 mps 658 mmHg 25%
    12:00 +28°C° 0 mm 3 mps 657 mmHg 22%
    13:00 +30°C° 0 mm 2 mps 657 mmHg 18%
    14:00 +30°C° 0 mm 2 mps 657 mmHg 18%
    15:00 +30°C° 0 mm 2 mps 656 mmHg 18%
    16:00 +30°C° 0 mm 2 mps 656 mmHg 18%
    17:00 +27°C° 0 mm 2 mps 656 mmHg 23%
    18:00 +23°C° 0 mm 2 mps 655 mmHg 28%
    19:00 +20°C° 0 mm 1 mps 655 mmHg 34%
    20:00 +19°C° 0 mm 1 mps 655 mmHg 37%
    21:00 +18°C° 0 mm 1 mps 655 mmHg 40%
    22:00 +16°C° 0 mm 1 mps 655 mmHg 42%
    23:00 +15°C° 0 mm 1 mps 655 mmHg 47%

    19 June, Wednesday

    Time Temperature Precipitation Wind Pressure Humidity
    00:00 +14°C° 0 mm 1 mps 655 mmHg 51%
    01:00 +13°C° 0 mm 1 mps 654 mmHg 55%
    02:00 +12°C° 0 mm 1 mps 654 mmHg 59%
    03:00 +11°C° 0 mm 1 mps 654 mmHg 62%
    04:00 +11°C° 0 mm 1 mps 654 mmHg 65%
    05:00 +11°C° 0 mm 1 mps 654 mmHg 66%
    06:00 +11°C° 0 mm 1 mps 655 mmHg 66%
    07:00 +11°C° 0 mm 1 mps 655 mmHg 67%
    08:00 +15°C° 0 mm 2 mps 656 mmHg 53%
    09:00 +19°C° 0 mm 3 mps 657 mmHg 39%
    10:00 +23°C° 0 mm 4 mps 658 mmHg 26%
    11:00 +26°C° 0 mm 4 mps 658 mmHg 22%
    12:00 +28°C° 0 mm 3 mps 658 mmHg 18%
    13:00 +30°C° 0 mm 3 mps 657 mmHg 14%
    14:00 +30°C° 0 mm 3 mps 657 mmHg 14%
    15:00 +30°C° 0 mm 2 mps 657 mmHg 14%
    16:00 +30°C° 0 mm 2 mps 656 mmHg 14%
    17:00 +26°C° 0 mm 2 mps 656 mmHg 19%
    18:00 +22°C° 0 mm 1 mps 655 mmHg 24%
    19:00 +19°C° 0 mm 1 mps 655 mmHg 29%
    20:00 +18°C° 0 mm 1 mps 655 mmHg 32%
    21:00 +16°C° 0 mm 1 mps 655 mmHg 35%
    22:00 +15°C° 0 mm 1 mps 656 mmHg 39%
    23:00 +14°C° 0 mm 1 mps 655 mmHg 42%

    20 June, Thursday

    Time Temperature Precipitation Wind Pressure Humidity
    00:00 +13°C° 0 mm 1 mps 655 mmHg 46%
    01:00 +12°C° 0 mm 1 mps 655 mmHg 49%
    02:00 +10°C° 0 mm 0 mps 654 mmHg 53%
    03:00 +10°C° 0 mm 0 mps 654 mmHg 56%
    04:00 +9°C° 0 mm 0 mps 654 mmHg 59%
    05:00 +9°C° 0 mm 0 mps 654 mmHg 60%
    06:00 +9°C° 0 mm 0 mps 655 mmHg 60%
    07:00 +9°C° 0 mm 0 mps 655 mmHg 60%
    08:00 +15°C° 0 mm 1 mps 656 mmHg 49%
    09:00 +19°C° 0 mm 2 mps 657 mmHg 38%
    10:00 +24°C° 0 mm 3 mps 658 mmHg 27%
    11:00 +26°C° 0 mm 3 mps 658 mmHg 24%
    12:00 +28°C° 0 mm 3 mps 658 mmHg 20%
    13:00 +30°C° 0 mm 3 mps 657 mmHg 16%
    14:00 +30°C° 0 mm 3 mps 657 mmHg 16%
    15:00 +30°C° 0 mm 3 mps 656 mmHg 15%
    16:00 +30°C° 0 mm 3 mps 656 mmHg 15%
    17:00 +26°C° 0 mm 2 mps 656 mmHg 19%
    18:00 +23°C° 0 mm 2 mps 655 mmHg 23%
    19:00 +19°C° 0 mm 2 mps 655 mmHg 28%
    20:00 +18°C° 0 mm 2 mps 655 mmHg 29%
    21:00 +18°C° 0 mm 1 mps 656 mmHg 30%
    22:00 +16°C° 0 mm 1 mps 656 mmHg 32%
    23:00 +15°C° 0 mm 1 mps 655 mmHg 36%

    21 June, Friday

    Time Temperature Precipitation Wind Pressure Humidity
    00:00 +13°C° 0 mm 1 mps 655 mmHg 39%
    01:00 +12°C° 0 mm 1 mps 654 mmHg 43%
    02:00 +11°C° 0 mm 1 mps 654 mmHg 46%
    03:00 +10°C° 0 mm 1 mps 654 mmHg 49%
    04:00 +10°C° 0 mm 1 mps 654 mmHg 53%
    05:00 +10°C° 0 mm 1 mps 654 mmHg 53%
    06:00 +10°C° 0 mm 1 mps 654 mmHg 54%
    07:00 +10°C° 0 mm 1 mps 655 mmHg 55%
    08:00 +14°C° 0 mm 2 mps 656 mmHg 45%
    09:00 +18°C° 0 mm 3 mps 657 mmHg 35%
    10:00 +23°C° 0 mm 4 mps 658 mmHg 25%
    11:00 +26°C° 0 mm 4 mps 657 mmHg 22%
    12:00 +28°C° 0 mm 3 mps 657 mmHg 19%
    13:00 +30°C° 0 mm 3 mps 657 mmHg 15%
    14:00 +30°C° 0 mm 3 mps 656 mmHg 15%
    15:00 +30°C° 0 mm 3 mps 655 mmHg 15%
    16:00 +29°C° 0 mm 3 mps 655 mmHg 14%
    17:00 +26°C° 0 mm 2 mps 655 mmHg 19%
    18:00 +21°C° 0 mm 2 mps 654 mmHg 23%
    19:00 +18°C° 0 mm 2 mps 654 mmHg 28%
    20:00 +18°C° 0 mm 1 mps 654 mmHg 30%
    21:00 +16°C° 0 mm 1 mps 654 mmHg 33%
    22:00 +15°C° 0 mm 1 mps 654 mmHg 35%
    23:00 +14°C° 0 mm 1 mps 654 mmHg 39%
    Show more